Weather History for KBIX - February, 2013

Change the Weather History Date:

Saturday, February 9, 2013

  Actual Average Record
Temperature  
Mean Temperature 55 °F -  
Max Temperature 64 °F 59 °F 78 °F (1969)
Min Temperature 46 °F 39 °F 24 °F (1971)
Degree Days  
Heating Degree Days 10    
Growing Degree Days 5 (Base 50)    
Moisture  
Dew Point 49 °F    
Average Humidity 80    
Maximum Humidity 94    
Minimum Humidity 67    
Precipitation  
Precipitation 0.00 in - - ()
Sea Level Pressure  
Sea Level Pressure 30.18 in    
Wind  
Wind Speed 11 mph (East)    
Max Wind Speed 16 mph    
Max Gust Speed 23 mph    
Visibility 10 miles    
Events      
Averages and records for this station are not official NWS values.
T = Trace of Precipitation, MM = Missing Value Source: NWS Daily Summary

Daily Weather History Graph

Daily Weather History Graph

Search for Another Location

Airport or City:

Trip Planner

Search our weather history database for the weather conditions in past years. The results will help you decide how hot, cold, wet, or windy it might be!

Date:

Astronomy

Feb. 09, 2013 Rise Set
Actual Time 6:40 AM CST 5:39 PM CST
Civil Twilight 6:16 AM CST 6:04 PM CST
Nautical Twilight 5:47 AM CST 6:32 PM CST
Astronomical Twilight 5:19 AM CST 7:00 PM CST
Moon 5:53 AM CST (2/9) 5:19 PM CST (2/9)
Length of Visible Light 11h 48m
Length of Day
10h 58m
Waning Crescent, 0% of the Moon is Illuminated
Feb 9
Waning Crescent
Feb 10
New
Feb 17
First Quarter
Feb 25
Full
Mar 4
Last Quarter

Hourly Weather History & Observations

Time (CST) Temp. Windchill Dew Point Humidity Pressure Visibility Wind Dir Wind Speed Gust Speed Precip Events Conditions
12:58 AM 54.7 °F - 48.9 °F 81% 30.17 in 10.0 mi NE 15.0 mph 23.0 mph N/A   Mostly Cloudy
1:03 AM 55.4 °F - 48.2 °F 77% 30.16 in 10.0 mi NE 15.0 mph 23.0 mph N/A   Scattered Clouds
1:55 AM 53.6 °F - 44.6 °F 72% 30.16 in 10.0 mi NNE 13.8 mph - N/A   Clear
2:55 AM 51.8 °F - 44.6 °F 76% 30.17 in 10.0 mi NE 12.7 mph - N/A   Clear
3:55 AM 50.0 °F - 44.6 °F 82% 30.17 in 10.0 mi NE 8.1 mph - N/A   Clear
4:55 AM 48.2 °F - 42.8 °F 82% 30.19 in 10.0 mi NE 8.1 mph - N/A   Partly Cloudy
5:04 AM 48.2 °F - 42.8 °F 82% 30.19 in 10.0 mi NE 6.9 mph - N/A   Mostly Cloudy
5:55 AM 48.2 °F - 42.8 °F 82% 30.20 in 10.0 mi NE 10.4 mph - N/A   Overcast
6:28 AM 46.4 °F 41.9 °F 42.8 °F 87% 30.21 in 10.0 mi NE 9.2 mph - N/A   Mostly Cloudy
6:39 AM 46.4 °F 42.4 °F 42.8 °F 87% 30.22 in 10.0 mi NE 8.1 mph - N/A   Mostly Cloudy
6:55 AM 46.4 °F 41.9 °F 42.8 °F 87% 30.23 in 10.0 mi NE 9.2 mph - N/A   Overcast
7:55 AM 48.2 °F - 42.8 °F 82% 30.23 in 10.0 mi ENE 8.1 mph - N/A   Overcast
8:17 AM 50.0 °F - 42.8 °F 76% 30.24 in 10.0 mi ENE 9.2 mph - N/A   Mostly Cloudy
8:18 AM 50.0 °F - 42.8 °F 76% 30.24 in 10.0 mi ENE 9.2 mph - N/A   Mostly Cloudy
8:32 AM 50.0 °F - 44.6 °F 82% 30.24 in 10.0 mi ENE 6.9 mph - N/A   Scattered Clouds
8:40 AM 51.8 °F - 44.6 °F 76% 30.24 in 10.0 mi NE 9.2 mph - N/A   Mostly Cloudy
8:42 AM 51.8 °F - 44.6 °F 76% 30.24 in 10.0 mi ENE 8.1 mph - N/A   Mostly Cloudy
8:51 AM 51.8 °F - 44.6 °F 76% 30.24 in 10.0 mi NE 9.2 mph - N/A   Mostly Cloudy
8:55 AM 51.8 °F - 44.6 °F 76% 30.24 in 10.0 mi NE 8.1 mph - N/A   Mostly Cloudy
9:04 AM 51.8 °F - 44.6 °F 76% 30.24 in 10.0 mi NE 9.2 mph - N/A   Mostly Cloudy
9:21 AM 51.8 °F - 44.6 °F 76% 30.25 in 10.0 mi NE 8.1 mph - N/A   Overcast
9:55 AM 53.6 °F - 46.4 °F 77% 30.25 in 10.0 mi ENE 6.9 mph - N/A   Overcast
10:01 AM 53.6 °F - 46.4 °F 77% 30.25 in 10.0 mi NE 8.1 mph - N/A   Overcast
10:58 AM 57.0 °F - 48.0 °F 72% 30.24 in 10.0 mi ENE 10.4 mph - N/A   Mostly Cloudy
11:03 AM 59.0 °F - 48.2 °F 67% 30.23 in 10.0 mi East 10.4 mph - N/A   Mostly Cloudy
11:58 AM 60.8 °F - 50.2 °F 68% 30.22 in 10.0 mi ESE 8.1 mph - N/A   Mostly Cloudy
12:58 PM 64.0 °F - 52.9 °F 67% 30.19 in 10.0 mi ESE 9.2 mph - N/A   Scattered Clouds
1:13 PM 64.4 °F - 53.6 °F 68% 30.18 in 10.0 mi SSE 9.2 mph - N/A   Mostly Cloudy
1:33 PM 62.6 °F - 53.6 °F 72% 30.17 in 10.0 mi ESE 6.9 mph - N/A   Scattered Clouds
1:58 PM 64.2 °F - 53.6 °F 68% 30.17 in 10.0 mi SE 9.2 mph - N/A   Clear
2:58 PM 64.4 °F - 54.3 °F 70% 30.14 in 10.0 mi SE 10.4 mph - N/A   Clear
3:58 PM 63.0 °F - 54.3 °F 73% 30.12 in 10.0 mi SE 12.7 mph - N/A   Clear
4:58 PM 60.3 °F - 54.5 °F 81% 30.13 in 10.0 mi SE 12.7 mph - N/A   Clear
5:58 PM 59.4 °F - 55.6 °F 87% 30.13 in 10.0 mi SE 12.7 mph - N/A   Clear
6:13 PM 59.0 °F - 55.4 °F 88% 30.13 in 10.0 mi SE 16.1 mph - N/A   Mostly Cloudy
6:58 PM 59.9 °F - 56.1 °F 87% 30.14 in 10.0 mi ESE 11.5 mph - N/A   Overcast
7:13 PM 59.0 °F - 55.4 °F 88% 30.13 in 10.0 mi ESE 11.5 mph - N/A   Scattered Clouds
7:58 PM 59.9 °F - 56.5 °F 88% 30.14 in 10.0 mi ESE 10.4 mph - N/A   Scattered Clouds
8:58 PM 59.5 °F - 55.9 °F 88% 30.13 in 10.0 mi East 8.1 mph - N/A   Clear
9:58 PM 58.8 °F - 55.6 °F 89% 30.12 in 10.0 mi ESE 6.9 mph - N/A   Scattered Clouds
10:43 PM 59.0 °F - 55.4 °F 88% 30.11 in 10.0 mi East 6.9 mph - N/A   Mostly Cloudy
10:53 PM 59.0 °F - 55.4 °F 88% 30.11 in 10.0 mi East 5.8 mph - N/A   Scattered Clouds
10:58 PM 59.0 °F - 56.1 °F 90% 30.12 in 10.0 mi East 6.9 mph - N/A   Scattered Clouds
11:43 PM 59.0 °F - 57.2 °F 94% 30.10 in 10.0 mi East 5.8 mph - N/A   Overcast
11:58 PM 60.3 °F - 57.7 °F 91% 30.11 in 10.0 mi East 8.1 mph - N/A   Overcast